Location: Unspecified
(43.4354°N, 0.0000°E)
Time: 19:34:33
(UTC+00:00)

A-11 Canister half - Pass Details

Date: 24 June 2019
Orbit: 1515 x 1685 km, 47.2° (Epoch: 15 July)

Event Time Altitude Azimuth Distance (km) Brightness Sun altitude
Rises 12:45:36 0° 272° (W) 4,879 11.8 68.1°
Reaches altitude 10° 12:48:49 10° 275° (W) 3,872 11.4 67.8°
Maximum altitude 12:58:41 71° 359° (N) 1,670 10.2 66.9°
Drops below altitude 10° 13:08:10 10° 84° (E) 3,736 11.0 65.8°
Sets 13:11:13 0° 86° (E) 4,701 11.4 65.5°
